Location: Ingoldesthorpe
(52.8667°N, 0.5167°E)
Time: 00:56:02
(UTC+00:00)

KORONAS-FOTON - Pass Details

Date: 19 May 2025
Orbit: 447 x 464 km, 82.4° (Epoch: 18 June)

Event Time Altitude Azimuth Distance (km) Brightness Sun altitude
Exits shadow 23:23:11 42° 191° (S) 669 3.9 -16.8°
Maximum altitude 23:24:17 89° 255° (WSW) 465 3.4 -16.9°
Drops below altitude 10° 23:27:47 10° 11° (N) 1,605 7.4 -16.9°
Sets 23:29:52 0° 11° (NNE) 2,480 8.7 -17.0°
